Historique des stations

Station météo de Le Mesnil-Thomas

Altitude de la station : 196 m







Données météorologiques pour le 02/12/2021
Date
Heure
Températures Humidité Point de rosée Vitesse
du vent
Direction Rafales Windchill Pression Pluviométrie
Cumul
Date
Heure
Températures Humidité Point de rosée Vitesse
du vent
Direction Rafales Windchill Pression Pluviométrie
Cumul
02/12/2021 14:485.2 °C76 %1.1 °C13 km/hNO37 km/h1.7 1011 hPa-
02/12/2021 14:485.2 °C76 %1.1 °C13 km/hNO37 km/h1.7 1011 hPa-
02/12/2021 14:485.2 °C76 %1.1 °C13 km/hNO37 km/h1.7 1011 hPa-
02/12/2021 14:485.2 °C76 %1.1 °C13 km/hNO37 km/h1.7 1011 hPa-
02/12/2021 14:485.2 °C76 %1.1 °C13 km/hNO37 km/h1.7 1011 hPa-
02/12/2021 14:485.2 °C76 %1.1 °C13 km/hNO37 km/h1.7 1011 hPa-
02/12/2021 14:485.2 °C76 %1.1 °C13 km/hNO37 km/h1.7 1011 hPa-
02/12/2021 14:485.2 °C76 %1.1 °C13 km/hNO37 km/h1.7 1011 hPa-
02/12/2021 14:485.2 °C76 %1.1 °C13 km/hNO37 km/h1.7 1011 hPa-
02/12/2021 14:485.2 °C76 %1.1 °C13 km/hNO37 km/h1.7 1011 hPa-
02/12/2021 14:485.2 °C76 %1.1 °C13 km/hNO37 km/h1.7 1011 hPa-
02/12/2021 14:485.2 °C76 %1.1 °C13 km/hNO37 km/h1.7 1011 hPa-
02/12/2021 14:485.2 °C76 %1.1 °C13 km/hNO37 km/h1.7 1011 hPa-
02/12/2021 14:445.2 °C77 %1.7 °C16 km/hONO37 km/h1.7 1011 hPa-
02/12/2021 14:295.1 °C77 %1.1 °C14 km/hO37 km/h1.7 1011 hPa-
02/12/2021 14:144.9 °C76 %1.1 °C21 km/hNO37 km/h1.1 1011 hPa-
02/12/2021 13:595.1 °C77 %1.1 °C23 km/hONO37 km/h1.1 1011 hPa-
02/12/2021 13:444.8 °C79 %1.7 °C14 km/hNO32 km/h1.1 1011 hPa-
02/12/2021 13:284.8 °C79 %1.7 °C14 km/hNNO32 km/h1.1 1011 hPa-
02/12/2021 13:145.0 °C82 %2.2 °C14 km/hONO32 km/h1.7 1011 hPa-
02/12/2021 12:594.7 °C85 %2.2 °C11 km/hNO32 km/h1.7 1011 hPa-
02/12/2021 12:444.7 °C85 %2.2 °C11 km/hNO32 km/h1.7 1012 hPa-
02/12/2021 12:294.7 °C84 %2.2 °C16 km/hONO32 km/h1.1 1012 hPa-
02/12/2021 12:144.6 °C85 %2.2 °C14 km/hNO32 km/h1.1 1012 hPa-
02/12/2021 11:594.4 °C88 %2.8 °C11 km/hONO32 km/h1.7 1012 hPa-
02/12/2021 11:444.3 °C87 %2.2 °C16 km/hONO32 km/h1.1 1012 hPa-
02/12/2021 11:304.4 °C88 %2.8 °C11 km/hOSO32 km/h1.7 1012 hPa-
02/12/2021 11:144.2 °C89 %2.8 °C13 km/hO32 km/h1.1 1012 hPa-
02/12/2021 10:593.8 °C89 %2.2 °C14 km/hO32 km/h0.6 1012 hPa-
02/12/2021 10:443.4 °C90 %2.2 °C18 km/hOSO32 km/h0.0 1011 hPa-
02/12/2021 10:283.3 °C90 %1.7 °C10 km/hONO32 km/h0.0 1011 hPa-
02/12/2021 10:143.0 °C90 %1.7 °C13 km/hO32 km/h0.6 1011 hPa-
02/12/2021 09:592.8 °C90 %1.1 °C10 km/hO32 km/h0.0 1011 hPa-
02/12/2021 09:442.5 °C91 %1.1 °C10 km/hO32 km/h0.0 1011 hPa-
02/12/2021 09:292.3 °C91 %1.1 °C8 km/hONO32 km/h-0.6 1011 hPa-
02/12/2021 09:142.2 °C91 %1.1 °C13 km/hO32 km/h-1.1 1011 hPa-
02/12/2021 08:591.9 °C91 %0.6 °C14 km/hONO32 km/h-1.1 1010 hPa-
02/12/2021 08:441.9 °C91 %0.6 °C16 km/hO32 km/h-1.1 1010 hPa-
02/12/2021 08:292.0 °C91 %0.6 °C8 km/hONO32 km/h-1.1 1010 hPa-
02/12/2021 08:141.9 °C91 %0.6 °C11 km/hONO32 km/h-1.7 1010 hPa-
02/12/2021 07:592.0 °C91 %0.6 °C8 km/hNO32 km/h-0.6 1010 hPa-
02/12/2021 07:442.2 °C91 %1.1 °C10 km/hNO32 km/h-1.1 1010 hPa-
02/12/2021 07:282.3 °C91 %1.1 °C13 km/hNO32 km/h-1.1 1009 hPa-
02/12/2021 07:142.3 °C92 %1.1 °C14 km/hONO32 km/h-1.7 1009 hPa-
02/12/2021 06:592.4 °C92 %1.1 °C13 km/hNO32 km/h-1.7 1009 hPa-
02/12/2021 06:452.5 °C91 %1.1 °C10 km/hO16 km/h-0.6 1009 hPa-
02/12/2021 06:442.5 °C91 %1.1 °C10 km/hONO32 km/h-0.6 1009 hPa-
02/12/2021 06:292.7 °C91 %1.7 °C8 km/hNO32 km/h0.6 1009 hPa-
02/12/2021 06:142.9 °C91 %1.7 °C11 km/hNO32 km/h0.0 1009 hPa-
02/12/2021 05:593.2 °C91 %1.7 °C13 km/hONO32 km/h0.0 1009 hPa-
02/12/2021 05:443.3 °C91 %2.2 °C11 km/hNO32 km/h0.6 1009 hPa-
02/12/2021 05:293.6 °C91 %2.2 °C6 km/hNO32 km/h0.6 1009 hPa-
02/12/2021 05:143.9 °C91 %2.8 °C10 km/hNO32 km/h0.6 1008 hPa-
02/12/2021 04:594.3 °C91 %2.8 °C24 km/hONO32 km/h1.7 1008 hPa-
02/12/2021 04:444.5 °C91 %3.3 °C10 km/hNO32 km/h1.7 1008 hPa-
02/12/2021 04:294.7 °C92 %3.3 °C13 km/hNO32 km/h1.7 1008 hPa-
02/12/2021 04:144.9 °C93 %3.9 °C10 km/hNO32 km/h1.7 1008 hPa-
02/12/2021 03:594.9 °C93 %3.9 °C11 km/hNNO24 km/h2.2 1007 hPa-
02/12/2021 03:455.0 °C93 %3.9 °C11 km/hNO16 km/h2.8 1007 hPa-
02/12/2021 03:445.0 °C93 %3.9 °C14 km/hNO24 km/h2.8 1007 hPa-
02/12/2021 03:295.0 °C93 %3.9 °C11 km/hNO24 km/h2.2 1007 hPa-
02/12/2021 03:144.9 °C93 %3.9 °C11 km/hNO23 km/h2.2 1007 hPa-
02/12/2021 02:594.8 °C93 %3.9 °C14 km/hNO23 km/h1.7 1006 hPa-
02/12/2021 02:444.7 °C93 %3.9 °C16 km/hNO23 km/h1.7 1006 hPa-
02/12/2021 02:304.7 °C93 %3.9 °C14 km/hONO23 km/h1.1 1006 hPa-
02/12/2021 02:284.7 °C93 %3.9 °C11 km/hO23 km/h1.1 1006 hPa-
02/12/2021 02:144.6 °C93 %3.3 °C11 km/hONO21 km/h1.7 1006 hPa-
02/12/2021 01:594.4 °C93 %3.3 °C8 km/hONO21 km/h1.7 1006 hPa-
02/12/2021 01:444.4 °C92 %3.3 °C10 km/hONO21 km/h2.2 1005 hPa-
02/12/2021 01:294.5 °C92 %3.3 °C18 km/hO21 km/h1.7 1006 hPa-
02/12/2021 01:144.3 °C92 %3.3 °C10 km/hO18 km/h2.2 1005 hPa-
02/12/2021 01:014.3 °C92 %3.3 °C5 km/hO18 km/h3.3 1005 hPa-
02/12/2021 00:444.4 °C92 %3.3 °C6 km/hO18 km/h2.2 1005 hPa-
02/12/2021 00:304.6 °C92 %3.3 °C8 km/hONO14 km/h2.2 1005 hPa-
02/12/2021 00:284.6 °C92 %3.3 °C10 km/hO18 km/h2.2 1005 hPa-
02/12/2021 00:144.6 °C93 %3.3 °C8 km/hO14 km/h2.2 1005 hPa-


Minima :

Température : 1.9 °C
Humidité : 76 %
Point de rosée : 0.6 °C
Vent moyen : 5 km/h
Windchill : -1.7
Pression atm. : 1005 hPa
Maxima :

Température : 5.2 °C
Humidité : 93 %
Point de rosée : 3.9 °C
Vent moyen : 24 km/h
Windchill : 3.3
Pression atm. : 1012 hPa
Rafales max : 37 km/h
Cumul de pluie sur 24H : 0 mm

Le Mesnil-Thomas est une commune du département Eure-et-Loir (28).
La station météorologique du réseau de l'association la plus proche de Le Mesnil-Thomas est celle de Digny



Icône Facebook Association Météo Centre Icône Twitter Association Météo Centre Icône Chaîne Youtube Association Météo Centre Icône contact Association Météo Centre Icône Insta Association Météo Centre